User: anonymous   Login
Location: Vancouver
(49.2500°N, 123.1330°W)
Time: 22:59:11
(UTC-07:00)
Language:

Cosmos 1864 Rocket - Orbit

View from above orbital plane
View from above orbital plane
View from above satellite
View from above satellite

Ground track
Ground track

The orbit data is extracted from the following two-line orbital elements,

1 18161U 87057B   16179.07625157  .00000106  00000-0  91541-4 0  9992
2 18161  82.9339 336.1887 0030234 225.5797 271.8782 13.76943156435358
Epoch (UTC): 27 June 2016 01:49:48
Eccentricity: 0.0030234
inclination: 82.9339°
perigee height: 952 km
apogee height: 997 km
right ascension of ascending node: 336.1887°
argument of perigee: 225.5797°
revolutions per day: 13.76943156
mean anomaly at epoch: 271.8782°
orbit number at epoch: 43535

The dashed part of the orbit path shows where the satellite is in the earth's shadow,  

DLR